Location: Woodhurst
(52.3667°N, 0.0667°W)
Time: 16:03:21
(UTC+00:00)

Cosmos 1766 - Pass Details

Date: 19 May 2025
Orbit: 443 x 458 km, 82.5° (Epoch: 12 June)

Event Time Altitude Azimuth Distance (km) Brightness Sun altitude
Rises 22:58:55 0° 347° (NNW) 2,466 8.5 -16.6°
Reaches altitude 10° 23:01:00 10° 346° (NNW) 1,586 7.0 -16.6°
Maximum altitude 23:04:26 72° 262° (W) 476 2.9 -16.8°
Enters shadow 23:05:27 42° 190° (S) 649 3.2 -16.8°
